| time (UTC) | temp F | wind direction | speed MPH | gust MPH | rain 1hr in | rain 24hr in | rain mn in | humidity % | barometer mb |
| 20260505080411 | 65 | 254 | 6.0 | 11.0 | 0.00 | 0.00 | 0.00 | 59 | 1013.7 |
| 20260505074911 | 65 | 252 | 7.0 | 17.0 | 0.00 | 0.00 | 0.00 | 60 | 1013.7 |
| 20260505073411 | 64 | 242 | 7.0 | 15.0 | 0.00 | 0.00 | 0.00 | 58 | 1013.7 |
| 20260505071911 | 64 | 270 | 5.0 | 12.0 | 0.00 | 0.00 | 0.00 | 60 | 1013.8 |
| 20260505070411 | 63 | 211 | 8.0 | 14.0 | 0.00 | 0.00 | 0.00 | 59 | 1013.7 |
| 20260505064911 | 63 | 276 | 6.0 | 14.0 | 0.00 | 0.00 | 0.00 | 59 | 1013.6 |
| 20260505063411 | 62 | 182 | 5.0 | 19.0 | 0.00 | 0.00 | 0.00 | 59 | 1013.6 |
| 20260505061910 | 62 | 317 | 6.0 | 11.0 | 0.00 | 0.00 | 0.00 | 59 | 1013.6 |
| 20260505060410 | 62 | 248 | 9.0 | 14.0 | 0.00 | 0.00 | 0.00 | 57 | 1013.7 |
| 20260505054910 | 62 | 306 | 4.0 | 10.0 | 0.00 | 0.00 | 0.00 | 57 | 1013.8 |
| 20260505053410 | 61 | 295 | 2.0 | 7.0 | 0.00 | 0.00 | 0.00 | 57 | 1013.6 |
| 20260505051910 | 61 | 279 | 3.0 | 12.0 | 0.00 | 0.00 | 0.00 | 57 | 1013.6 |
| 20260505033414 | 61 | 290 | 6.0 | 12.0 | 0.00 | 0.00 | 0.00 | 56 | 1013.4 |
| 20260505030414 | 61 | 264 | 4.0 | 8.0 | 0.00 | 0.00 | 0.00 | 55 | 1013.7 |
| 20260504224912 | 63 | 263 | 11.0 | 18.0 | 0.00 | 0.00 | 0.00 | 52 | 1015.5 |
| 20260504223412 | 64 | 307 | 14.0 | 27.0 | 0.00 | 0.00 | 0.00 | 51 | 1015.8 |
| 20260504221911 | 64 | 261 | 6.0 | 25.0 | 0.00 | 0.00 | 0.00 | 51 | 1015.6 |
| 20260504220411 | 64 | 258 | 2.0 | 13.0 | 0.00 | 0.00 | 0.00 | 52 | 1015.7 |
| 20260504214911 | 64 | 177 | 3.0 | 5.0 | 0.00 | 0.00 | 0.00 | 51 | 1016.1 |
| 20260504213411 | 65 | 269 | 3.0 | 14.0 | 0.00 | 0.00 | 0.00 | 51 | 1016.0 |
| 20260504211911 | 65 | 256 | 8.0 | 18.0 | 0.00 | 0.00 | 0.00 | 50 | 1016.0 |
| 20260504210411 | 65 | 236 | 3.0 | 16.0 | 0.00 | 0.00 | 0.00 | 51 | 1016.2 |
| 20260504204912 | 65 | 296 | 11.0 | 16.0 | 0.00 | 0.00 | 0.00 | 50 | 1016.0 |
| 20260504203412 | 65 | 297 | 9.0 | 13.0 | 0.00 | 0.00 | 0.00 | 51 | 1016.1 |
| 20260504201912 | 65 | 283 | 5.0 | 10.0 | 0.00 | 0.00 | 0.00 | 49 | 1016.1 |
| 20260504200411 | 66 | 310 | 11.0 | 16.0 | 0.00 | 0.00 | 0.00 | 48 | 1016.1 |
| 20260504194912 | 66 | 227 | 8.0 | 15.0 | 0.00 | 0.00 | 0.00 | 48 | 1016.0 |
| 20260504193411 | 67 | 302 | 10.0 | 16.0 | 0.00 | 0.00 | 0.00 | 46 | 1015.9 |
| 20260504191911 | 67 | 287 | 9.0 | 14.0 | 0.00 | 0.00 | 0.00 | 45 | 1015.7 |
| 20260504190411 | 68 | 259 | 12.0 | 18.0 | 0.00 | 0.00 | 0.00 | 42 | 1015.7 |
| 20260504184911 | 68 | 320 | 12.0 | 23.0 | 0.00 | 0.00 | 0.00 | 42 | 1015.4 |
| 20260504180411 | 69 | 267 | 8.0 | 14.0 | 0.00 | 0.00 | 0.00 | 45 | 1015.2 |
| 20260504174911 | 69 | 257 | 9.0 | 17.0 | 0.00 | 0.00 | 0.00 | 44 | 1015.1 |
| 20260504173411 | 70 | 252 | 5.0 | 10.0 | 0.00 | 0.00 | 0.00 | 43 | 1015.1 |
| 20260504171911 | 70 | 251 | 5.0 | 8.0 | 0.00 | 0.28 | 0.00 | 40 | 1015.1 |
| 20260504170411 | 71 | 224 | 8.0 | 13.0 | 0.00 | 0.00 | 0.00 | 39 | 1015.0 |
| 20260504160412 | 75 | 218 | 5.0 | 12.0 | 0.00 | 0.00 | 0.00 | 38 | 1015.1 |
| 20260504150411 | 76 | 231 | 6.0 | 11.0 | 0.00 | 0.00 | 0.00 | 36 | 1015.3 |
| 20260504130410 | 78 | 309 | 12.0 | 19.0 | 0.00 | 0.00 | 0.00 | 37 | 1015.6 |
| 20260504110410 | 75 | 123 | 2.0 | 11.0 | 0.00 | 0.00 | 0.00 | 41 | 1016.9 |
| 20260504100409 | 72 | 259 | 7.0 | 14.0 | 0.00 | 0.00 | 0.00 | 46 | 1017.6 |
| 20260504081911 | 63 | 46 | 3.0 | 4.0 | 0.00 | 0.00 | 0.00 | 65 | 1018.0 |